Location: ?????????
(53.2086°N, 54.0693°E)
Time: 14:45:27
(UTC+00:00)

CSL-04 Debris - Pass Details

Date: 08 December 2019
Orbit: 827 x 849 km, 99.0° (Epoch: 20 January)

Event Time Altitude Azimuth Distance (km) Brightness Sun altitude
Rises 13:49:29 0° 138° (SE) 3,394 7.1 -14.3°
Reaches altitude 10° 13:51:57 10° 132° (SE) 2,460 6.3 -14.6°
Maximum altitude 13:57:03 43° 63° (ENE) 1,174 4.5 -15.4°
Drops below altitude 10° 14:02:10 10° 354° (N) 2,461 6.5 -16.1°
Sets 14:04:37 0° 348° (NNW) 3,396 7.3 -16.4°
